Location: Knowlton
(51.2333°N, 1.2667°E)
Time: 08:55:12
(UTC+00:00)

Cosmos 2237 Rocket - Pass Details

Date: 18 April 2021
Orbit: 836 x 848 km, 71.0° (Epoch: 16 May)

Event Time Altitude Azimuth Distance (km) Brightness Sun altitude
Rises 19:32:07 0° 331° (NNW) 3,409 6.4 -6.0°
Reaches altitude 10° 19:34:46 10° 340° (NNW) 2,469 5.4 -6.4°
Maximum altitude 19:40:01 38° 48° (NE) 1,269 3.0 -7.1°
Drops below altitude 10° 19:45:13 10° 115° (ESE) 2,450 3.9 -7.8°
Enters shadow 19:45:21 - 116° (ESE) 2,493 4.0 -7.8°
